Theta_e
315 315 317 319 320 315 315 314 316 315 315 315 314 312 310 309 309 310 309 304 305 305 302 300 298 296 295 295 293 291 290 288 287 287 286 286 286 286 286 286 286 286 286 286
311 311 311 313 313 317 317 317 315 316 315 311 312 311 314 313 309 310 306 303 306 304 300 298 296 295 294 292 290 288 287 287 286 286 286 286 286 285 285 285 285 285 285 285
312 312 314 314 312 310 309 309 310 310 310 311 313 313 313 313 309 309 304 305 305 301 299 297 294 294 292 290 288 287 286 286 286 285 285 285 285 285 285 285 285 284 285 285
311 314 318 314 313 312 312 313 310 314 314 313 313 312 309 308 308 306 303 305 301 298 297 294 293 292 290 287 287 286 285 285 285 285 285 285 284 284 284 284 284 284 284 284
318 316 315 317 315 313 316 317 313 315 314 312 310 309 309 306 304 304 303 300 299 297 295 293 292 290 287 286 286 285 285 285 285 285 285 284 284 284 284 284 283 283 284 284
311 318 322 316 314 312 311 318 312 313 312 313 311 312 309 306 303 301 300 299 297 296 294 292 288 287 286 285 285 284 284 284 284 284 284 284 284 283 283 283 283 283 283 283
316 317 315 312 312 312 317 312 310 308 309 309 309 309 306 302 301 300 299 297 296 294 291 288 286 286 285 284 284 284 284 284 284 284 284 283 283 283 283 283 283 282 283 283
312 316 318 311 313 316 310 308 307 307 307 308 308 307 305 302 300 298 295 294 293 291 288 286 286 285 285 284 284 284 284 284 284 283 283 283 283 283 283 282 282 282 282 283
312 312 310 309 309 307 306 307 307 308 307 306 306 305 304 302 299 298 295 292 291 290 287 286 285 285 284 284 284 283 283 283 283 283 283 283 283 282 282 282 282 282 282 283
313 311 310 308 307 307 307 308 307 306 306 305 305 304 303 300 298 295 292 290 289 287 286 285 285 284 284 284 283 283 283 283 282 282 283 283 282 282 282 282 282 282 283 284
311 310 308 307 307 307 306 305 305 303 304 303 302 301 301 298 297 294 291 289 287 286 285 285 284 284 284 284 283 283 282 282 282 282 282 282 282 282 282 282 283 284 284 284
312 308 307 307 306 305 305 305 304 302 301 299 299 298 298 297 296 292 289 287 286 285 284 284 284 284 284 283 283 282 282 282 282 282 282 282 282 281 281 282 283 283 283 283
308 305 304 304 302 302 303 299 297 296 296 297 298 298 298 292 290 289 286 285 284 284 284 284 283 283 283 283 282 282 282 282 282 282 282 281 281 281 282 282 282 282 282 282
304 303 306 304 302 296 295 296 297 297 297 297 298 297 294 290 288 286 285 285 284 284 283 283 283 283 283 282 282 282 281 282 282 281 281 281 281 282 282 281 282 281 281 282
301 299 299 296 295 296 296 295 295 296 295 295 295 294 289 286 284 284 285 284 284 283 283 283 283 283 282 282 281 281 281 281 281 281 282 282 281 281 281 281 281 281 281 281
295 293 293 295 295 293 292 292 295 295 294 293 291 289 288 285 284 284 284 284 283 282 283 282 282 282 281 281 281 281 281 281 282 281 281 281 281 281 281 281 281 281 281 281
296 297 290 288 288 293 293 293 295 295 292 290 289 288 285 284 284 284 284 283 283 282 282 282 281 281 281 281 281 281 281 281 281 281 280 281 281 281 281 281 282 281 281 281
295 292 293 295 294 293 293 293 293 292 291 292 288 285 284 283 282 283 283 283 282 282 282 281 281 281 281 281 280 281 281 280 280 280 280 281 281 281 282 281 281 281 280 280
295 295 294 293 293 292 292 292 293 293 289 286 284 283 284 283 283 283 282 281 281 280 281 281 281 281 280 280 280 280 280 280 280 280 280 281 281 281 281 281 280 280 280 280
294 293 292 291 292 293 292 293 292 288 286 285 284 283 282 283 282 282 281 280 281 281 280 280 281 280 280 279 279 280 280 280 280 280 280 280 280 279 280 279 279 279 279 279
291 290 289 288 288 290 291 291 288 285 285 284 283 282 282 283 282 281 280 279 281 281 281 280 280 279 279 279 280 281 280 280 279 279 279 278 278 278 278 278 278 278 278 278
289 289 289 288 286 285 286 286 286 285 284 283 283 282 282 281 281 281 281 280 280 280 280 279 279 279 279 280 280 280 279 278 277 277 277 277 277 277 277 277 277 277 277 278
289 289 290 289 287 286 286 284 284 283 283 283 283 282 281 281 280 279 279 280 279 279 279 278 278 279 279 280 279 278 277 276 276 276 277 276 276 276 277 277 277 277 277 277
288 289 289 289 288 285 281 284 283 283 283 283 282 282 281 280 280 279 279 278 278 278 278 278 278 278 279 278 276 276 276 276 276 276 276 277 277 277 277 276 276 277 277 277
288 288 287 286 283 283 284 283 283 282 282 281 281 280 280 279 278 278 278 277 277 277 276 276 277 277 276 276 276 276 276 276 276 277 277 277 276 276 276 276 276 276 277 277
286 286 286 286 285 284 283 282 282 281 280 280 280 279 278 278 278 277 276 276 276 276 275 275 275 275 276 275 275 276 276 276 276 276 276 276 276 276 276 276 276 276 276 276
285 285 284 283 283 282 282 281 280 279 278 278 278 278 277 277 276 276 275 275 275 274 274 274 274 274 275 275 275 276 276 275 275 275 276 276 275 275 275 275 275 275 275 275
Wind_Speed
3 4 4 4 6 9 7 5 6 3 6 2 1 5 5 6 4 8 8 7 7 6 5 7 6 6 9 12 13 13 13 16 19 20 22 23 25 27 28 29 30 32 34 35
1 4 4 1 2 6 3 3 3 3 4 3 3 1 2 3 4 6 6 7 7 6 7 6 6 7 7 9 10 13 15 17 19 22 23 25 27 29 30 31 32 33 32 32
2 2 3 4 8 7 4 4 6 5 3 2 3 4 1 2 6 7 7 8 8 6 7 6 6 6 8 8 10 13 13 16 20 22 25 26 28 28 30 30 30 29 30 30
3 2 2 2 3 4 6 4 4 6 4 3 3 2 3 3 6 8 9 8 7 9 9 6 4 6 5 7 10 12 14 17 20 22 24 26 27 28 29 28 27 29 29 29
4 3 2 1 3 6 5 1 3 3 2 3 1 2 4 3 4 1 6 8 10 10 8 6 3 3 3 6 10 13 16 18 20 22 25 27 27 29 29 28 28 28 27 30
2 3 6 2 1 2 4 1 2 3 3 2 2 2 4 1 3 6 13 16 14 9 7 3 2 2 4 7 11 15 17 18 20 21 23 25 25 27 28 27 27 27 29 27
2 2 5 4 2 2 4 4 3 4 3 2 3 4 2 5 4 8 12 12 10 7 6 4 2 2 4 8 13 15 17 18 20 21 23 23 25 27 29 28 26 26 27 28
3 2 6 0 2 5 4 3 5 5 4 2 2 1 2 3 5 6 9 9 6 5 5 3 0 4 8 12 14 16 18 20 22 23 23 24 24 28 27 26 24 25 26 28
6 4 2 2 4 4 5 6 4 2 3 4 4 4 4 5 6 6 10 9 5 4 4 2 3 7 11 14 15 17 19 22 25 25 25 22 26 27 25 22 22 23 24 25
3 2 3 4 3 3 2 3 3 2 2 2 2 2 3 3 5 5 8 7 5 3 0 3 6 9 10 13 16 18 21 24 26 25 24 26 25 21 21 21 22 24 24 25
1 1 3 2 1 3 4 1 1 2 1 2 1 1 1 3 4 6 8 5 3 1 3 5 9 11 13 16 17 20 23 25 26 26 24 26 23 23 23 23 22 27 27 28
5 5 4 4 4 3 4 2 1 2 3 2 1 2 4 4 6 8 7 5 3 3 5 8 11 15 16 17 17 19 23 21 23 22 23 23 24 28 23 22 26 29 29 29
4 5 4 5 6 2 3 4 6 6 5 3 1 1 2 3 6 7 7 4 3 5 8 10 13 16 16 18 19 20 22 25 23 22 22 23 24 24 24 25 24 28 27 27
3 6 4 4 4 5 6 3 3 4 5 5 4 2 2 4 6 6 4 5 5 8 10 11 14 18 20 22 22 22 23 23 23 25 23 23 23 23 24 23 23 25 28 28
6 6 5 6 5 4 4 1 3 5 3 4 7 6 6 5 6 7 5 5 8 10 11 14 18 23 23 21 22 23 23 23 21 22 22 24 25 24 23 23 23 25 27 27
4 5 5 3 3 3 3 3 3 5 4 5 7 8 10 9 7 5 5 6 7 12 17 19 22 24 21 21 21 23 21 20 22 22 22 23 24 23 23 23 24 24 24 26
4 3 1 2 4 3 5 5 6 8 6 8 12 11 9 7 6 6 7 7 10 13 16 19 22 19 20 20 22 24 23 22 21 23 22 23 23 23 24 23 20 24 25 26
4 3 3 2 3 4 5 6 8 10 8 11 10 10 9 8 6 7 8 12 15 17 19 19 18 20 21 23 23 23 20 21 21 22 24 24 24 24 23 23 24 24 26 25
4 4 4 4 6 6 6 7 8 9 8 9 10 10 8 7 7 8 9 12 16 16 21 19 21 20 23 24 22 22 22 23 23 23 23 25 25 23 21 23 23 23 23 23
2 4 6 7 7 8 8 8 7 8 9 10 9 8 8 8 7 9 10 13 17 19 19 20 19 23 24 23 20 22 23 20 22 23 23 24 23 23 22 24 24 23 23 23
6 6 7 6 8 9 10 10 10 11 12 11 11 10 10 10 9 10 12 10 21 19 18 20 23 24 25 20 23 22 21 20 21 22 22 22 22 21 21 22 23 23 23 23
3 3 6 7 8 12 13 12 13 13 11 11 11 9 8 11 11 13 14 16 20 17 18 23 23 23 23 25 24 21 20 21 21 21 20 21 21 22 23 23 23 23 23 23
7 8 9 7 9 10 10 12 13 13 12 11 10 10 10 11 10 10 6 15 19 22 22 25 23 24 25 25 22 22 22 21 20 21 22 24 24 24 23 23 23 22 24 24
9 9 10 10 8 7 5 12 13 14 13 10 8 7 8 9 12 13 15 19 20 20 22 22 24 25 25 23 24 22 20 20 22 25 27 26 24 21 22 24 24 24 25 26
9 9 7 6 6 8 11 9 6 7 7 5 5 5 6 8 10 17 18 22 22 21 23 23 24 24 22 23 21 22 23 24 24 24 22 22 25 23 24 25 25 25 24 23
4 5 6 7 7 5 4 5 3 3 2 2 5 6 10 12 15 19 20 20 21 22 24 25 23 22 23 23 23 24 24 24 24 24 25 25 26 25 25 25 25 25 25 25
2 2 2 2 1 1 3 4 3 2 2 4 7 11 13 17 19 18 20 24 24 24 23 24 24 24 23 24 25 25 24 25 26 26 26 25 26 25 25 24 23 24 24 23
Wind_Direction
85 127 134 178 181 173 182 171 176 226 196 270 219 241 258 272 179 171 172 146 154 154 139 113 107 80 49 33 20 12 14 11 8 1 358 357 356 354 353 352 350 347 343 340
77 49 70 130 171 169 189 204 244 218 264 253 16 9 349 303 213 193 162 157 150 132 129 133 90 60 44 33 22 8 6 3 0 357 356 355 354 352 350 348 347 343 338 333
209 53 63 312 216 187 179 193 159 191 192 17 45 90 80 213 210 206 183 156 152 146 134 111 84 52 40 26 10 4 353 356 358 355 353 352 349 348 345 341 339 334 331 328
150 76 189 223 316 157 128 65 116 92 100 135 173 206 236 245 209 205 170 147 135 138 130 122 90 52 32 14 2 354 351 355 354 351 347 346 345 343 340 337 332 329 325 322
166 194 298 48 187 149 161 118 30 91 70 69 74 42 318 8 348 164 127 120 135 135 129 120 72 46 17 357 356 352 353 350 348 346 343 343 340 338 336 331 328 323 319 316
87 150 215 186 149 99 95 223 346 126 91 31 110 29 250 329 112 101 121 135 139 139 131 115 94 20 348 0 358 349 343 339 340 341 339 334 334 333 329 327 318 316 313 314
150 219 288 248 226 64 124 195 149 121 135 133 144 200 276 145 115 132 136 135 134 136 134 147 154 357 349 360 352 339 332 333 335 335 334 333 328 331 329 322 315 312 313 315
99 107 263 228 73 168 154 129 153 178 181 66 1 315 217 165 137 137 121 125 133 148 169 153 28 340 359 354 337 331 331 330 330 332 332 328 326 327 323 319 316 316 316 316
180 217 245 333 125 130 146 152 195 164 201 197 211 231 204 195 167 160 158 154 169 190 170 159 358 355 347 338 332 327 327 328 331 331 331 329 324 320 315 315 313 312 313 310
125 176 143 123 74 100 134 163 208 225 230 185 223 296 264 153 161 151 160 181 195 192 297 334 340 343 332 326 330 328 327 329 331 330 326 319 317 311 312 313 314 312 309 312
284 152 70 337 284 202 208 167 331 330 286 298 339 343 120 158 160 167 178 180 186 250 299 320 325 323 331 335 332 326 326 329 329 326 318 313 313 314 316 313 310 309 311 313
215 185 146 177 186 186 175 193 34 319 311 68 48 184 155 171 180 171 176 184 225 267 302 316 322 325 329 331 329 326 324 322 320 311 313 313 313 313 315 311 312 311 313 314
200 167 128 115 105 59 107 60 36 34 20 313 180 136 169 150 169 169 171 209 260 293 308 313 314 312 324 331 330 328 323 320 314 311 312 310 309 307 310 314 314 313 317 318
112 118 97 149 146 88 83 80 2 312 295 305 314 294 212 178 169 184 214 250 279 296 303 312 313 316 332 333 329 324 320 314 307 308 305 304 305 307 309 311 313 313 316 320
83 61 93 114 111 122 135 154 285 290 272 279 271 251 204 188 203 220 236 270 288 299 314 322 324 325 330 326 322 320 316 309 307 306 305 306 308 306 305 306 306 308 313 316
77 70 48 45 309 291 292 269 258 277 264 250 235 223 213 212 217 232 265 291 310 315 322 325 318 320 320 321 319 316 311 309 313 310 306 307 305 303 305 305 305 307 311 314
93 329 12 293 222 240 243 239 237 244 236 214 216 214 205 212 236 262 287 304 313 313 311 310 312 318 320 320 319 318 315 309 311 309 303 303 302 302 300 297 298 306 306 310
119 130 173 193 231 248 256 238 228 228 223 228 212 198 205 213 244 284 306 312 307 306 312 322 321 320 317 321 323 317 308 307 305 303 303 302 300 300 302 303 301 304 305 307
159 194 232 256 265 263 268 259 241 236 221 203 194 209 226 245 263 281 291 293 299 307 320 322 318 315 317 319 314 310 306 302 301 301 301 302 302 300 301 302 302 306 311 317
206 222 234 247 255 246 260 258 251 226 220 211 213 223 246 261 269 277 289 289 300 306 316 315 313 309 315 317 313 308 301 299 302 302 301 302 305 305 306 307 308 310 312 311
226 235 236 245 270 274 263 263 244 233 226 218 220 235 253 275 285 296 298 294 311 321 314 310 312 312 315 312 309 308 306 301 301 301 301 300 301 303 303 305 305 305 307 307
233 240 257 255 249 259 254 246 237 236 229 231 240 252 263 276 288 293 293 290 314 318 313 312 311 311 311 312 311 307 304 303 301 300 297 297 299 300 299 298 299 301 301 303
252 255 269 257 249 259 268 245 238 235 235 240 246 250 254 272 285 289 297 316 313 316 311 308 312 312 313 312 309 306 304 302 299 296 295 297 296 293 291 294 301 302 302 304
255 265 271 290 281 253 241 245 236 235 239 241 241 254 274 294 303 308 311 311 311 313 310 309 313 313 313 310 307 303 300 299 297 296 295 296 292 296 299 297 298 299 301 302
255 276 289 283 247 252 260 257 228 217 216 225 255 279 301 312 305 311 313 314 315 314 313 312 311 311 309 307 303 301 300 297 298 298 300 301 296 295 296 295 297 300 301 304
226 261 281 274 261 268 235 200 193 179 191 280 302 322 323 321 318 316 319 317 313 315 312 314 311 309 305 302 301 299 297 297 299 298 298 295 294 296 296 296 297 299 299 301
210 204 185 152 139 138 135 133 131 94 29 352 320 327 325 324 324 319 318 319 320 316 311 308 306 306 305 303 300 299 299 298 298 299 299 298 296 294 296 296 299 300 302 303